Location: Warszawa
(52.2500°N, 21.0000°E)
Time: 02:16:05
(UTC+02:00)

SPROUT - Pass Details

Date: 24 April 2024
Orbit: 437 x 450 km, 98.0° (Epoch: 23 May)

Event Time Altitude Azimuth Distance (km) Brightness Sun altitude
Exits shadow 02:33:09 14° 127° (SE) 1,376 ? -19.9°
Maximum altitude 02:35:40 32° 67° (ENE) 799 ? -19.7°
Drops below altitude 10° 02:38:47 10° 2° (N) 1,616 ? -19.5°
Enters shadow 03:38:22 -58° 170° (S) 11,319 ? -13.7°
